| time (UTC) | temp F | wind direction | speed MPH | gust MPH | rain 1hr in | rain 24hr in | rain mn in | humidity % | barometer mb |
| 20260906193057 | 60 | 290 | 0.0 | 0.0 | 0.00 | 0.00 | 0.00 | 83 | 1021.8 |
| 20260906191504 | 62 | 291 | 0.0 | 0.0 | 0.00 | 0.00 | 0.00 | 79 | 1021.7 |
| 20260906190035 | 63 | 290 | 0.0 | 0.0 | 0.00 | 0.00 | 0.00 | 78 | 1021.5 |
| 20260906184632 | 64 | 290 | 0.0 | 0.0 | 0.00 | 0.00 | 0.00 | 76 | 1021.3 |
| 20260906183013 | 67 | 72 | 0.0 | 6.0 | 0.00 | 0.00 | 0.00 | 69 | 1021.1 |
| 20260906181606 | 67 | 113 | 0.0 | 3.0 | 0.00 | 0.00 | 0.00 | 68 | 1020.9 |
| 20260906180137 | 69 | 127 | 0.0 | 3.0 | 0.00 | 0.00 | 0.00 | 65 | 1020.6 |
| 20260906174521 | 70 | 122 | 0.0 | 10.0 | 0.00 | 0.00 | 0.00 | 62 | 1020.3 |
| 20260906173049 | 70 | 298 | 2.0 | 11.0 | 0.00 | 0.00 | 0.00 | 61 | 1020.2 |
| 20260906171633 | 71 | 196 | 1.0 | 11.0 | 0.00 | 0.00 | 0.00 | 58 | 1020.0 |
| 20260906170106 | 73 | 131 | 1.0 | 13.0 | 0.00 | 0.00 | 0.00 | 57 | 1020.1 |
| 20260906164509 | 75 | 208 | 3.0 | 10.0 | 0.00 | 0.00 | 0.00 | 53 | 1020.0 |
| 20260906163015 | 76 | 99 | 0.0 | 4.0 | 0.00 | 0.00 | 0.00 | 53 | 1019.8 |
| 20260906161544 | 76 | 246 | 0.0 | 3.0 | 0.00 | 0.00 | 0.00 | 56 | 1019.9 |
| 20260906160137 | 77 | 238 | 0.0 | 6.0 | 0.00 | 0.00 | 0.00 | 53 | 1019.8 |
| 20260906154611 | 77 | 98 | 0.0 | 3.0 | 0.00 | 0.00 | 0.00 | 52 | 1019.8 |
| 20260906153007 | 78 | 35 | 0.0 | 8.0 | 0.00 | 0.00 | 0.00 | 53 | 1019.9 |
| 20260906151632 | 79 | 269 | 0.0 | 8.0 | 0.00 | 0.00 | 0.00 | 56 | 1019.8 |
| 20260906150055 | 79 | 16 | 2.0 | 8.0 | 0.00 | 0.00 | 0.00 | 50 | 1019.8 |
| 20260906144622 | 79 | 311 | 2.0 | 8.0 | 0.00 | 0.00 | 0.00 | 49 | 1019.8 |
| 20260906143047 | 79 | 302 | 3.0 | 8.0 | 0.00 | 0.00 | 0.00 | 50 | 1019.8 |
| 20260906141507 | 80 | 319 | 2.0 | 8.0 | 0.00 | 0.00 | 0.00 | 51 | 1019.9 |
| 20260906140037 | 79 | 312 | 1.0 | 5.0 | 0.00 | 0.00 | 0.00 | 51 | 1020.1 |
| 20260906134632 | 80 | 317 | 1.0 | 4.0 | 0.00 | 0.00 | 0.00 | 50 | 1020.3 |
| 20260906133049 | 79 | 38 | 2.0 | 5.0 | 0.00 | 0.00 | 0.00 | 49 | 1020.4 |
| 20260906131635 | 79 | 355 | 1.0 | 5.0 | 0.00 | 0.00 | 0.00 | 53 | 1020.5 |
| 20260906130057 | 78 | 325 | 2.0 | 8.0 | 0.00 | 0.00 | 0.00 | 51 | 1020.7 |
| 20260906124513 | 79 | 326 | 1.0 | 5.0 | 0.00 | 0.00 | 0.00 | 52 | 1020.9 |
| 20260906123128 | 79 | 331 | 0.0 | 5.0 | 0.00 | 0.00 | 0.00 | 52 | 1021.0 |
| 20260906121549 | 77 | 300 | 1.0 | 10.0 | 0.00 | 0.00 | 0.00 | 55 | 1021.1 |
| 20260906120023 | 76 | 278 | 1.0 | 9.0 | 0.00 | 0.00 | 0.00 | 60 | 1021.3 |
| 20260906114611 | 77 | 298 | 0.0 | 2.0 | 0.00 | 0.00 | 0.00 | 58 | 1021.4 |
| 20260906113026 | 76 | 292 | 0.0 | 2.0 | 0.00 | 0.00 | 0.00 | 64 | 1021.5 |
| 20260906111620 | 76 | 298 | 0.0 | 3.0 | 0.00 | 0.00 | 0.00 | 63 | 1021.6 |
| 20260906110035 | 76 | 48 | 0.0 | 3.0 | 0.00 | 0.00 | 0.00 | 59 | 1021.9 |
| 20260906104636 | 75 | 47 | 0.0 | 1.0 | 0.00 | 0.00 | 0.00 | 64 | 1022.1 |
| 20260906103033 | 74 | 51 | 1.0 | 4.0 | 0.00 | 0.00 | 0.00 | 61 | 1022.2 |
| 20260906101610 | 73 | 345 | 0.0 | 4.0 | 0.00 | 0.00 | 0.00 | 65 | 1022.4 |
| 20260906100155 | 72 | 12 | 0.0 | 3.0 | 0.00 | 0.00 | 0.00 | 66 | 1022.4 |
| 20260906094605 | 71 | 46 | 0.0 | 5.0 | 0.00 | 0.00 | 0.00 | 66 | 1022.7 |
| 20260906093040 | 71 | 18 | 0.0 | 4.0 | 0.00 | 0.00 | 0.00 | 67 | 1022.9 |
| 20260906091621 | 70 | 336 | 0.0 | 1.0 | 0.00 | 0.00 | 0.00 | 71 | 1023.0 |
| 20260906090105 | 69 | 47 | 0.0 | 1.0 | 0.00 | 0.00 | 0.00 | 75 | 1023.2 |
| 20260906084506 | 68 | 42 | 0.0 | 2.0 | 0.00 | 0.02 | 0.00 | 74 | 1023.3 |
| 20260906083045 | 67 | 300 | 0.0 | 1.0 | 0.00 | 0.02 | 0.00 | 78 | 1023.3 |
| 20260906081622 | 65 | 315 | 0.0 | 2.0 | 0.00 | 0.02 | 0.00 | 80 | 1023.4 |
| 20260906074532 | 62 | 304 | 0.0 | 0.0 | 0.00 | 0.04 | 0.00 | 86 | 1023.7 |
| 20260906073112 | 60 | 308 | 0.0 | 0.0 | 0.00 | 0.04 | 0.00 | 89 | 1023.7 |
| 20260906071515 | 58 | 317 | 0.0 | 0.0 | 0.00 | 0.04 | 0.00 | 95 | 1023.8 |
| 20260906070116 | 56 | 317 | 0.0 | 0.0 | 0.00 | 0.04 | 0.00 | 97 | 1023.8 |
| 20260906064522 | 55 | 318 | 0.0 | 0.0 | 0.00 | 0.04 | 0.00 | 97 | 1024.0 |
| 20260906063110 | 54 | 318 | 0.0 | 0.0 | 0.00 | 0.04 | 0.00 | 97 | 1024.0 |
| 20260906061530 | 53 | 318 | 0.0 | 0.0 | 0.00 | 0.04 | 0.00 | 97 | 1023.9 |
| 20260906060112 | 53 | 318 | 0.0 | 0.0 | 0.00 | 0.04 | 0.00 | 97 | 1023.9 |
| 20260906054513 | 52 | 318 | 0.0 | 0.0 | 0.00 | 0.04 | 0.00 | 97 | 1023.8 |
| 20260906053104 | 52 | 318 | 0.0 | 0.0 | 0.00 | 0.04 | 0.00 | 97 | 1023.7 |
| 20260906051538 | 52 | 318 | 0.0 | 0.0 | 0.00 | 0.04 | 0.00 | 97 | 1023.7 |
| 20260906050127 | 52 | 317 | 0.0 | 0.0 | 0.00 | 0.04 | 0.00 | 96 | 1023.7 |
| 20260906044530 | 52 | 317 | 0.0 | 1.0 | 0.00 | 0.04 | 0.00 | 96 | 1023.6 |
| 20260906043113 | 52 | 315 | 0.0 | 0.0 | 0.00 | 0.04 | 0.00 | 96 | 1023.5 |
| 20260906041508 | 52 | 322 | 0.0 | 0.0 | 0.00 | 0.04 | 0.00 | 96 | 1023.4 |
| 20260906040123 | 52 | 322 | 0.0 | 0.0 | 0.00 | 0.04 | 0.00 | 96 | 1023.3 |
| 20260906034531 | 52 | 322 | 0.0 | 0.0 | 0.00 | 0.04 | 0.00 | 96 | 1023.2 |
| 20260906033122 | 52 | 322 | 0.0 | 1.0 | 0.00 | 0.04 | 0.00 | 96 | 1023.3 |
| 20260906031606 | 52 | 327 | 0.0 | 0.0 | 0.00 | 0.04 | 0.00 | 96 | 1023.2 |
| 20260906030159 | 52 | 329 | 0.0 | 0.0 | 0.00 | 0.04 | 0.00 | 96 | 1023.0 |
| 20260906024519 | 52 | 331 | 0.0 | 0.0 | 0.00 | 0.11 | 0.00 | 95 | 1023.0 |
| 20260906023110 | 53 | 331 | 0.0 | 1.0 | 0.00 | 0.11 | 0.00 | 96 | 1022.9 |
| 20260906021658 | 53 | 331 | 0.0 | 1.0 | 0.00 | 0.11 | 0.00 | 95 | 1023.0 |
| 20260906020029 | 53 | 317 | 0.0 | 0.0 | 0.00 | 0.11 | 0.00 | 95 | 1022.9 |
| 20260906014611 | 54 | 317 | 0.0 | 0.0 | 0.00 | 0.11 | 0.00 | 96 | 1022.7 |
| 20260906013028 | 54 | 317 | 0.0 | 0.0 | 0.00 | 0.11 | 0.00 | 96 | 1022.7 |
| 20260906011623 | 54 | 317 | 0.0 | 0.0 | 0.00 | 0.11 | 0.00 | 95 | 1022.8 |
| 20260906010110 | 54 | 317 | 0.0 | 0.0 | 0.00 | 0.11 | 0.00 | 95 | 1022.7 |
| 20260906004522 | 55 | 317 | 0.0 | 0.0 | 0.00 | 0.11 | 0.00 | 94 | 1022.7 |
| 20260906003116 | 55 | 317 | 0.0 | 0.0 | 0.00 | 0.11 | 0.00 | 94 | 1022.7 |
| 20260906001522 | 56 | 317 | 0.0 | 0.0 | 0.00 | 0.11 | 0.00 | 94 | 1022.5 |
| 20260906000112 | 56 | 306 | 0.0 | 0.0 | 0.00 | 0.11 | 0.00 | 93 | 1022.6 |
| 20260905234530 | 57 | 305 | 0.0 | 0.0 | 0.00 | 0.11 | 0.00 | 93 | 1022.6 |
| 20260905233112 | 57 | 311 | 0.0 | 0.0 | 0.00 | 0.11 | 0.00 | 93 | 1022.6 |
| 20260905231544 | 57 | 311 | 0.0 | 0.0 | 0.00 | 0.11 | 0.00 | 92 | 1022.6 |
| 20260905230131 | 57 | 311 | 0.0 | 0.0 | 0.00 | 0.11 | 0.00 | 92 | 1022.7 |
| 20260905224541 | 57 | 304 | 0.0 | 0.0 | 0.00 | 0.11 | 0.00 | 92 | 1022.5 |
| 20260905223130 | 58 | 306 | 0.0 | 1.0 | 0.00 | 0.11 | 0.00 | 92 | 1022.5 |
| 20260905221613 | 57 | 306 | 0.0 | 1.0 | 0.00 | 0.11 | 0.00 | 93 | 1022.6 |
| 20260905220021 | 57 | 300 | 0.0 | 2.0 | 0.00 | 0.11 | 0.00 | 92 | 1022.5 |
| 20260905214655 | 57 | 306 | 0.0 | 1.0 | 0.00 | 0.11 | 0.11 | 92 | 1022.4 |
| 20260905213110 | 57 | 305 | 0.0 | 1.0 | 0.00 | 0.11 | 0.11 | 91 | 1022.2 |
| 20260905211541 | 57 | 294 | 0.0 | 1.0 | 0.00 | 0.11 | 0.11 | 92 | 1022.0 |
| 20260905210133 | 59 | 314 | 0.0 | 0.0 | 0.00 | 0.11 | 0.11 | 90 | 1022.0 |
| 20260905204609 | 59 | 293 | 0.0 | 0.0 | 0.00 | 0.11 | 0.11 | 90 | 1022.2 |
| 20260905203046 | 59 | 293 | 0.0 | 0.0 | 0.00 | 0.11 | 0.11 | 88 | 1022.2 |
| 20260905201616 | 60 | 293 | 0.0 | 0.0 | 0.00 | 0.11 | 0.11 | 87 | 1022.1 |
| 20260905200034 | 61 | 293 | 0.0 | 0.0 | 0.00 | 0.11 | 0.11 | 87 | 1022.1 |
| 20260905194610 | 61 | 276 | 0.0 | 2.0 | 0.00 | 0.11 | 0.11 | 87 | 1021.9 |